AirNav   Phillips 66 Aviation Fuel
 
 720 users online  

69K Wamego Municipal Airport
Wamego, Kansas, USA

GOING TO WAMEGO?


FAA INFORMATION EFFECTIVE 11 OCTOBER 2018

Location

FAA Identifier: 69K
Lat/Long: 39-11-52.2900N / 096-15-32.1850W
39-11.871500N / 096-15.536417W
39.1978583 / -96.2589403
(estimated)
Elevation: 966 ft. / 294 m (estimated)
Variation: 06E (1985)
From city: 3 miles E of WAMEGO, KS
Time zone: UTC -5 (UTC -6 during Standard Time)
Zip code: 66547

Airport Operations

Airport use: Open to the public
Activation date: 07/1968
Control tower: no
ARTCC: KANSAS CITY CENTER
FSS: WICHITA FLIGHT SERVICE STATION
NOTAMs facility: ICT (NOTAM-D service available)
Attendance: UNATNDD
Wind indicator: yes
Segmented circle: no
Lights: ACTVT LIRL RWY 18/36 - CTAF.
Beacon: white-green (lighted land airport)
Operates sunset to sunrise.

Airport Communications

CTAF: 122.9
WX ASOS at MHK (20 nm W): 119.075 (785-537-1035)

Nearby radio navigation aids

VOR radial/distance  VOR name  Freq  Var
MHKr077/19.3MANHATTAN VOR/DME110.2004E
FRIr058/(31.2)FORT RILEY VOR109.4006E
TOPr271/33.2TOPEKA VORTAC117.8005E

 
NDB name  Hdg/Dist  Freq  Var  ID
CAVALRY062/27.031406ECVY -.-. ...- -.--
HERINGTON034/39.840706EHRU .... .-. ..-

Airport Services

Fuel available: 100LL
AVBL 24 HRS WITH CREDIT CARD.
Parking: tiedowns
Airframe service: NONE
Powerplant service: NONE
Bottled oxygen: NONE
Bulk oxygen: NONE

Runway Information

Runway 18/36

Dimensions: 3184 x 45 ft. / 970 x 14 m
Surface: asphalt, in good condition
Runway edge lights: low intensity
NSTD LIRL; RWY LGTS LCTD 13 FT OUTSIDE RWY EDGE. RWY END LGTS AER 36 LCTD 14 FT N OF THLD. RWY END LGTS AER 18 LCTD 134 FT N OF DSPLCD THLD BAR.
RUNWAY 18  RUNWAY 36
Latitude: 39-12.133833N39-11.609167N
Longitude: 096-15.534167W096-15.538667W
Elevation: 964.0 ft.964.0 ft.
Traffic pattern: leftleft
Displaced threshold: 176 ft.no
Markings: basic, in good conditionbasic, in good condition
Obstructions: 15 ft. road, 200 ft. from runway, 96 ft. right of centerline
+15 FT COUNTY RD & +15 ARPT ACCESS RD.
15 ft. road, 200 ft. from runway, 96 ft. left of centerline
+15 FT COUNTY RD.

Airport Ownership and Management from official FAA records

Ownership: Publicly-owned
Owner: CITY OF WAMEGO
P.O. BOX 86
WAMEGO, KS 66547-0086
Phone 785-456-9119
STREET ADDRESS: 430 LINCOLN
Manager: KEN STEIN
430 LINCOLN
WAMEGO, KS 66547-0086
Phone 785-456-9119
24 HR PHONE 456-9553 (POLICE DEPT).

Airport Operational Statistics

Aircraft based on the field: 11
Single engine airplanes: 11
    
Aircraft operations: avg 43/week *
44% transient general aviation
44% local general aviation
11% military
* for 12-month period ending 31 July 2017

Additional Remarks

ULTRALIGHT ACTIVITY ON & INVOF ARPT.
COUNTY ROAD 75 FT WEST OF RY WITHIN SFC AREA.

Instrument Procedures

There are no published instrument procedures at 69K.

Some nearby airports with instrument procedures:

KMHK - Manhattan Regional Airport (20 nm W)
KFRI - Marshall Army Airfield (25 nm W)
3JC - Freeman Field Airport (29 nm W)
KTOP - Philip Billard Municipal Airport (31 nm E)
KFOE - Topeka Regional Airport (31 nm SE)
 
Loc | Ops | Rwys | IFR | FBO | Links
Com | Nav | Svcs | Stats | Notes

Kansas City Aviation Department
 
Area around 69K (Wamego Municipal Airport)
 
Road maps at: MapQuest Bing Google
 
Aerial photo
WARNING: Photo may not be current or correct
Aerial photo of 69K (Wamego Municipal Airport)
Photo by Kendall D. Gott
Photo taken 20-Jan-2014
looking northwest.

Do you have a better or more recent aerial photo of Wamego Municipal Airport that you would like to share? If so, please send us your photo.

 
Sectional chart

 
Airport distance calculator
Flying to Wamego Municipal Airport? Find the distance to fly.

From to 69K

Sunrise and sunset
Times for 22-Oct-2018
 Local
(UTC-5)
 Zulu
(UTC)
Morning civil twilight07:1612:16
Sunrise07:4312:43
Sunset18:3623:36
Evening civil twilight19:0300:03

Current date and time
Zulu (UTC)  23-Oct-2018 03:47:32
Local (UTC-5)  22-Oct-2018 22:47:32
 
METAR
KMHK 
20nm W 
230252Z AUTO 00000KT 9SM CLR 11/09 A3018 RMK AO2 SLP220 T01110094 51018 PWINO $
KFRI 
26nm SW 
230256Z AUTO 03003KT 10SM CLR 12/09 A3018 RMK AO2 SLP218 T01160092 52018
KTOP 
30nm E 
230253Z AUTO 00000KT 10SM CLR 11/08 A3018 RMK AO2 SLP220 T01110083 51018
KFOE 
33nm SE 
230253Z 00000KT 10SM CLR 10/08 A3018 RMK AO2 SLP220 T01000078 51016
TAF
KMHK 
20nm W 
221737Z 2218/2318 VRB03KT P6SM SKC FM231300 07006KT P6SM FEW250
NOTAMs
Click for the latest NOTAMs
NOTAMs are issued by the DoD/FAA and will open in a separate window not controlled by AirNav.

 

 
 

Would you like to see your business listed on this page?

 If your business provides an interesting product or service to pilots, flight crews, aircraft, or users of the Wamego Municipal Airport, you should consider listing it here.  To start the listing process, click on the button below
 
Add a business
 

Other Pages about Wamego Municipal Airport

Update a link
 
Copyright © AirNav, LLC. All rights reserved. Privacy Policy  Contact